TimeEDT,TemperatureF,Dew PointF,Humidity,Sea Level PressureIn,VisibilityMPH,Wind Direction,Wind SpeedMPH,Gust SpeedMPH,PrecipitationIn,Events,Conditions,WindDirDegrees,DateUTC
12:51 AM,48.0,33.1,56,30.11,10.0,NW,13.8,-,N/A,,Clear,320,2013-05-14 04:51:00
1:51 AM,46.9,32.0,56,30.10,10.0,NW,13.8,-,N/A,,Clear,320,2013-05-14 05:51:00
2:51 AM,46.9,33.1,59,30.10,10.0,NW,11.5,-,N/A,,Clear,320,2013-05-14 06:51:00
3:51 AM,46.0,33.1,61,30.10,10.0,WNW,9.2,-,N/A,,Clear,300,2013-05-14 07:51:00
4:51 AM,46.0,33.1,61,30.10,10.0,NW,15.0,-,N/A,,Clear,310,2013-05-14 08:51:00
5:51 AM,45.0,32.0,60,30.10,10.0,NW,13.8,-,N/A,,Clear,310,2013-05-14 09:51:00
6:51 AM,46.0,30.9,56,30.12,10.0,NW,17.3,-,N/A,,Clear,310,2013-05-14 10:51:00
7:51 AM,46.9,32.0,56,30.12,10.0,WNW,10.4,-,N/A,,Partly Cloudy,300,2013-05-14 11:51:00
8:51 AM,50.0,30.0,46,30.13,10.0,WNW,12.7,-,N/A,,Partly Cloudy,300,2013-05-14 12:51:00
9:51 AM,52.0,28.0,40,30.12,10.0,NW,9.2,-,N/A,,Partly Cloudy,310,2013-05-14 13:51:00
10:51 AM,53.1,26.1,35,30.11,10.0,NW,10.4,-,N/A,,Partly Cloudy,320,2013-05-14 14:51:00
11:51 AM,55.0,21.9,28,30.10,10.0,NW,13.8,20.7,N/A,,Partly Cloudy,320,2013-05-14 15:51:00
12:51 PM,55.9,23.0,28,30.09,10.0,NW,9.2,16.1,N/A,,Scattered Clouds,310,2013-05-14 16:51:00
1:51 PM,57.2,21.2,25,30.08,10.0,WNW,11.5,19.6,N/A,,Mostly Cloudy,300,2013-05-14 17:51:00
2:51 PM,57.9,19.9,23,30.06,10.0,NNW,10.4,18.4,N/A,,Mostly Cloudy,330,2013-05-14 18:51:00
3:51 PM,60.1,15.1,17,30.05,10.0,West,9.2,17.3,N/A,,Mostly Cloudy,270,2013-05-14 19:51:00
4:51 PM,60.1,19.9,21,30.04,10.0,NW,12.7,-,N/A,,Mostly Cloudy,320,2013-05-14 20:51:00
5:51 PM,62.1,14.0,15,30.03,10.0,West,10.4,-,N/A,,Scattered Clouds,280,2013-05-14 21:51:00
6:51 PM,61.0,18.0,19,30.03,10.0,WNW,9.2,-,N/A,,Scattered Clouds,300,2013-05-14 22:51:00
7:51 PM,60.1,16.0,18,30.03,10.0,West,9.2,-,N/A,,Scattered Clouds,260,2013-05-14 23:51:00
8:51 PM,59.0,17.1,20,30.04,10.0,WSW,5.8,-,N/A,,Partly Cloudy,250,2013-05-15 00:51:00
9:51 PM,59.0,18.0,20,30.05,10.0,Calm,Calm,-,N/A,,Partly Cloudy,0,2013-05-15 01:51:00
10:51 PM,55.9,36.0,47,30.06,10.0,South,8.1,-,N/A,,Partly Cloudy,180,2013-05-15 02:51:00
11:51 PM,55.0,36.0,49,30.07,10.0,South,8.1,-,N/A,,Partly Cloudy,190,2013-05-15 03:51:00